Location: Newark
(48.3453°N, 0.5589°E)
Time: 21:13:07
(UTC+00:00)

SR - Visible Passes

Search period start: 11 December 2019 00:00
Search period end: 21 December 2019 00:00
Orbit: 573 x 882 km, 66.7° (Epoch: 11 December)

Date Brightness Start Highest point End Pass type
(mag) Time Alt. Az. Time Alt. Az. Time Alt. Az.
11 Dec ? 17:50:15 10° NW 17:56:12 80° WSW 18:01:48 10° SSE visible
11 Dec ? 19:34:12 10° WNW 19:37:22 15° WSW 19:40:25 10° SW visible
12 Dec ? 17:00:33 10° NNW 17:06:27 63° NE 17:12:03 10° SE visible
12 Dec ? 18:43:20 10° NW 18:48:11 27° WSW 18:52:49 10° SSW visible
13 Dec ? 17:53:11 10° NW 17:58:49 49° WSW 18:04:09 10° S visible
14 Dec ? 17:03:19 10° NW 17:09:16 84° WSW 17:14:51 10° SSE visible
14 Dec ? 18:47:07 10° WNW 18:50:28 16° WSW 18:53:43 10° SW visible
15 Dec ? 17:56:21 10° NW 18:01:17 29° WSW 18:05:58 10° SSW visible
16 Dec ? 06:48:35 10° SSE 06:52:22 19° ESE 06:56:17 10° ENE visible
16 Dec ? 17:06:13 10° NW 17:11:55 51° WSW 17:17:14 10° S visible
17 Dec ? 18:00:03 10° WNW 18:03:34 17° WSW 18:06:59 10° SW visible
18 Dec ? 06:49:48 10° S 06:54:42 32° ESE 06:59:50 10° NE visible
18 Dec ? 17:09:22 10° NW 17:14:23 30° WSW 17:19:07 10° S visible
19 Dec ? 06:01:49 10° SE 06:05:28 18° ESE 06:09:14 10° ENE visible
20 Dec ? 06:51:44 10° SSW 06:57:11 54° ESE 07:02:57 10° NE visible
20 Dec ? 17:13:00 10° WNW 17:16:41 18° WSW 17:20:13 10° SW visible
